[[{"header":{"parameterUnit":"m.s-1","parameterCategory":1,"la1":30.2991,"la2":30.254,"lo1":-89.0895,"lo2":-89.0444,"dy":0.0017,"dx":0.0017,"nx":28,"ny":28,"refTime":"2024-03-21T09:00:00:Z","depth":0,"parameterNumber":2,"parameterNumberName":"U-component_of_WINDS"},"data":[0,0,0,0,0,0,0,0,0,0,0,0,0,0,0,0,0,0,0,0,0,0,0,0,0,0,0,0,0,0,0,0,0,0,0,0,0,0,0,0,0,0,0,0,0,0,0,0,0,0,0,0,0,0,0,0,0,0,-3.0285,-3.0285,0,-3.0274,-3.0274,-3.0274,-3.0151,-3.0148,-3.0145,-3.0142,-3.0133,-3.0135,-3.0138,0,0,0,0,0,0,0,0,0,0,0,0,0,-3.0202,-3.0204,-3.0285,-3.0285,-3.0285,-3.0274,-3.0274,-3.0274,-3.0151,-3.0147,-3.0144,-3.014,-3.0132,-3.0135,-3.0138,0,0,0,0,0,0,0,0,0,0,0,0,0,-3.0219,-3.0205,-3.0285,-3.0222,-3.0216,-3.0274,-3.0274,-3.0274,-3.0152,-3.0147,-3.0143,-3.0138,-3.0131,-3.0135,-3.0138,-3.0256,0,0,-3.0151,-3.0152,0,0,0,0,0,0,0,0,-3.0219,-3.0223,-3.0232,-3.0227,-3.022,-3.0209,-3.0241,-3.0268,-3.0153,-3.0177,-3.0141,-3.0136,-3.0162,-3.0163,-3.0171,-3.0256,-3.0255,-3.0151,-3.0153,-3.0155,-3.0156,0,0,0,0,0,0,0,-3.0217,-3.0222,-3.0281,-3.0232,-3.0225,-3.0195,-3.0193,-3.0246,-3.0196,-3.0174,-3.0165,-3.0166,-3.0158,-3.0168,-3.017,-3.0255,-3.0151,-3.0154,-3.0157,-3.0158,-3.0436,-3.044,0,0,0,0,0,0,-3.0225,-3.0222,-3.0281,-3.028,-3.0208,-3.0201,-3.0198,-3.0217,-3.0195,-3.0187,-3.017,-3.016,-3.0163,-3.0166,-3.0169,-3.0306,-3.0155,-3.0159,-3.0161,-3.0431,-3.0437,-3.0442,0,0,0,0,0,0,-3.0223,-3.0231,-3.0281,-3.0249,-3.0253,-3.0207,-3.023,-3.022,-3.0229,-3.0191,-3.0182,-3.0189,-3.016,-3.0164,-3.0235,-3.0304,-3.0161,-3.0164,-3.0425,-3.0433,-3.0439,-3.058,0,0,0,0,0,0,-3.0222,-3.0231,-3.0275,-3.0251,-3.0255,-3.0348,-3.0234,-3.0223,-3.0236,-3.0223,-3.0206,-3.0199,-3.0156,-3.023,-3.0239,-3.0307,-3.0167,-3.0418,-3.0428,-3.0437,-3.0569,-3.0591,-3.061,0,0,0,0,0,-3.0219,-3.0315,-3.0278,-3.0286,-3.0309,-3.0352,-3.0354,-3.0302,-3.0242,-3.0286,-3.0261,-3.02,-3.0295,-3.0238,-3.0248,-3.0317,-3.0414,-3.0426,-3.0436,-3.0559,-3.0587,-3.0609,0,0,0,0,0,0,-3.035,-3.0311,-3.0269,-3.036,-3.036,-3.0331,-3.0384,-3.0333,-3.035,-3.0338,-3.0273,-3.027,-3.0352,-3.0341,-3.028,-3.043,-3.0344,-3.0357,-3.0434,-3.0459,-3.048,-3.0481,-3.0171,0,0,0,0,0,-3.0389,-3.0426,-3.0391,-3.0475,-3.0477,-3.0431,-3.0448,-3.0408,-3.0405,-3.0405,-3.0385,-3.0386,-3.0416,-3.0437,-3.0462,-3.0566,-3.0561,-3.0619,-3.064,-3.0657,-3.0669,-3.0724,-3.075,-3.0479,-3.0479,-3.0479,0,0,-3.0471,-3.0454,-3.0482,-3.0501,-3.0496,-3.0537,-3.0432,-3.0479,-3.0509,-3.0412,-3.0478,-3.0465,-3.0461,-3.055,-3.0588,-3.0543,-3.0743,-3.0671,-3.0685,-3.0688,-3.0738,-3.0764,-3.0787,-3.0487,-3.0485,-3.0484,0,0,-3.0641,-3.0632,-3.0701,-3.0698,-3.0692,-3.0661,-3.0678,-3.0656,-3.0643,-3.0709,-3.0637,-3.0672,-3.0724,-3.0725,-3.0732,-3.0903,-3.0847,-3.0913,-3.1021,-3.1075,-3.1097,-3.1115,-3.1177,-3.12,-3.0926,-3.0926,-3.0926,0,-3.0744,-3.0802,-3.0743,-3.0796,-3.0806,-3.072,-3.079,-3.079,-3.0793,-3.0803,-3.0753,-3.0817,-3.0809,-3.0896,-3.0938,-3.0947,-3.0964,-3.0915,-3.1098,-3.1116,-3.1133,-3.1191,-3.1214,-3.0934,-3.0933,-3.0932,-3.0932,0,-3.0929,-3.097,-3.1027,-3.1031,-3.1048,-3.1109,-3.1061,-3.1085,-3.1044,-3.1019,-3.1087,-3.1073,-3.1095,-3.1112,-3.1073,-3.1195,-3.1168,-3.1109,-3.1021,-3.1168,-3.1221,-3.1243,-3.0946,-3.0943,-3.094,-3.0938,0,0,-3.1181,-3.1152,-3.1174,-3.1175,-3.1162,-3.1193,-3.1251,-3.1271,-3.1294,-3.1299,-3.1346,-3.1392,-3.1338,-3.1346,-3.1306,-3.1354,-3.1491,-3.1289,-3.1288,-3.1328,-3.1625,-3.167,-3.1697,-3.1453,-3.1457,-3.146,-3.1626,0,-3.1345,-3.1441,-3.139,-3.1493,-3.1531,-3.145,-3.15,-3.1498,-3.1476,-3.1505,-3.1481,-3.1515,-3.144,-3.1445,-3.1489,-3.1465,-3.155,-3.1452,-3.1497,-3.15,-3.1501,-3.1724,-3.1771,-3.1928,-3.1646,-3.165,-3.1652,0,-3.1549,-3.1563,-3.167,-3.165,-3.1664,-3.171,-3.1724,-3.1753,-3.175,-3.173,-3.174,-3.1688,-3.1744,-3.1657,-3.1733,-3.1668,-3.1683,-3.1674,-3.1679,-3.1682,-3.1585,-3.1734,-3.1977,-3.2001,-3.1684,-3.1682,-3.168,0,-3.1724,-3.1768,-3.1838,-3.1841,-3.182,-3.1854,-3.1847,-3.1838,-3.1854,-3.1867,-3.1876,-3.1896,-3.1907,-3.1924,-3.188,-3.182,-3.1962,-3.1871,-3.1949,-3.195,-3.1983,-3.1981,-3.2232,-3.1992,-3.1992,-3.1991,-3.1991,0,-3.1912,-3.1981,-3.1916,-3.1959,-3.2033,-3.1975,-3.2051,-3.2035,-3.2028,-3.2067,-3.1998,-3.2036,-3.1974,-3.2007,-3.1972,-3.2041,-3.2046,-3.2033,-3.2023,-3.2039,-3.2041,-3.2049,-3.2037,-3.1998,-3.1996,-3.1995,-3.1994,0,-3.212,-3.2078,-3.2149,-3.2123,-3.2118,-3.2174,-3.2152,-3.2191,-3.2164,-3.2214,-3.2223,-3.2181,-3.2216,-3.2172,-3.2203,-3.218,-3.2274,-3.2248,-3.2275,-3.2268,-3.2348,-3.2341,-3.2613,-3.2646,-3.2385,-3.2387,-3.239,0,-3.2243,-3.2294,-3.2273,-3.2294,-3.2291,-3.2325,-3.2341,-3.2285,-3.2304,-3.2304,-3.2344,-3.2372,-3.2392,-3.2451,-3.2424,-3.2447,-3.2421,-3.2515,-3.2424,-3.2439,-3.2423,-3.2421,-3.2426,-3.2534,-3.2537,-3.2539,-3.2541,0,-3.2467,-3.2444,-3.2469,-3.2487,-3.2507,-3.2519,-3.2525,-3.2546,-3.2488,-3.2513,-3.2547,-3.2563,-3.2594,-3.2624,-3.264,-3.2632,-3.2578,-3.257,-3.2589,-3.2607,-3.2621,-3.2615,-3.2326,-3.2564,-3.2562,-3.256,-3.2559,-3.2558,-3.2636,-3.2678,-3.267,-3.27,-3.2699,-3.2706,-3.2742,-3.2719,-3.2747,-3.2767,-3.2733,-3.2776,-3.2772,-3.2787,-3.2787,-3.282,-3.278,-3.2808,-3.2815,-3.2823,-3.2835,-3.2615,-3.2823,-3.2822,-3.2821,-3.2821,-3.282,0,-3.2857,-3.2848,-3.2876,-3.2887,-3.2911,-3.2856,-3.2861,-3.2884,-3.2923,-3.2923,-3.2944,-3.2984,-3.3012,-3.2987,-3.3011,-3.3042,-3.3018,-3.3051,-3.3048,-3.3047,-3.2869,-3.2851,-3.307,-3.307,-3.307,-3.307,-3.307,-3.307,-3.2974,-3.3042,-3.3019,-3.3085,-3.3075,-3.3117,-3.3124,-3.3131,-3.3131,-3.3178,-3.3201,-3.3184,-3.3175,-3.3197,-3.3221,-3.3213,-3.3225,-3.3266,-3.325,-3.3084,-3.306,-3.3036,-3.3018,-3.3269,-3.327,-3.3425,-3.3426,-3.3427]},{"header":{"parameterUnit":"m.s-1","parameterCategory":1,"la1":30.2991,"la2":30.254,"lo1":-89.0895,"lo2":-89.0444,"dy":0.0017,"dx":0.0017,"nx":28,"ny":28,"refTime":"2024-03-21T09:00:00:Z","depth":0,"parameterNumber":3,"parameterNumberName":"V-component_of_WINDS"},"data":[0,0,0,0,0,0,0,0,0,0,0,0,0,0,0,0,0,0,0,0,0,0,0,0,0,0,0,0,0,0,0,0,0,0,0,0,0,0,0,0,0,0,0,0,0,0,0,0,0,0,0,0,0,0,0,0,0,0,0.0518,0.0518,0,0.0558,0.0559,0.0559,0.0599,0.06,0.06,0.0601,0.0641,0.0642,0.0642,0,0,0,0,0,0,0,0,0,0,0,0,0,0.0474,0.0475,0.0518,0.0518,0.0519,0.0558,0.0559,0.056,0.0599,0.06,0.0601,0.0601,0.0641,0.0642,0.0643,0,0,0,0,0,0,0,0,0,0,0,0,0,0.0502,0.0475,0.0517,0.0543,0.0546,0.0558,0.0559,0.056,0.0599,0.06,0.0601,0.0602,0.0641,0.0642,0.0643,0.0632,0,0,0.0645,0.0646,0,0,0,0,0,0,0,0,0.05,0.0503,0.0539,0.0542,0.0545,0.0575,0.0558,0.0584,0.0599,0.0579,0.0601,0.0602,0.0618,0.0621,0.0627,0.0634,0.0636,0.0645,0.0646,0.0646,0.0647,0,0,0,0,0,0,0,0.0498,0.0502,0.0534,0.0539,0.0543,0.0553,0.0558,0.0563,0.0594,0.0581,0.0584,0.0588,0.062,0.0626,0.0628,0.0636,0.0645,0.0646,0.0647,0.0647,0.0639,0.0638,0,0,0,0,0,0,0.0492,0.05,0.0532,0.0535,0.0524,0.0553,0.0558,0.0564,0.0594,0.0599,0.0587,0.059,0.0624,0.0627,0.063,0.0621,0.0646,0.0647,0.0648,0.064,0.0639,0.0638,0,0,0,0,0,0,0.0491,0.0495,0.0531,0.0518,0.0524,0.0553,0.0559,0.0565,0.0571,0.0599,0.0604,0.0588,0.0625,0.0629,0.0632,0.0623,0.0647,0.0648,0.064,0.0639,0.0638,0.0601,0,0,0,0,0,0,0.049,0.0494,0.049,0.0518,0.0524,0.0532,0.0559,0.0565,0.0572,0.0576,0.0601,0.0606,0.0626,0.063,0.0633,0.0624,0.0649,0.0641,0.064,0.0639,0.0603,0.0599,0.0595,0,0,0,0,0,0.0488,0.0478,0.049,0.0494,0.052,0.0531,0.0535,0.0559,0.0571,0.0568,0.0586,0.0605,0.0623,0.063,0.0633,0.0625,0.0642,0.064,0.0639,0.0605,0.06,0.0595,0,0,0,0,0,0,0.0447,0.0482,0.0496,0.0494,0.0509,0.0538,0.0534,0.0552,0.0564,0.0566,0.0595,0.0601,0.0601,0.0613,0.062,0.0617,0.0635,0.0634,0.0609,0.0604,0.06,0.0597,0.065,0,0,0,0,0,0.0438,0.0445,0.0474,0.047,0.0477,0.0504,0.051,0.0527,0.0544,0.0551,0.057,0.0585,0.0595,0.06,0.061,0.0606,0.0612,0.0602,0.0598,0.0594,0.0593,0.0592,0.0588,0.0632,0.0632,0.0632,0,0,0.0419,0.0439,0.0441,0.0462,0.0476,0.0483,0.0509,0.0514,0.0519,0.0552,0.0556,0.057,0.059,0.0589,0.059,0.06,0.0582,0.0592,0.0589,0.059,0.059,0.0586,0.0582,0.0631,0.0631,0.0632,0,0,0.0388,0.0403,0.0402,0.0416,0.0437,0.0456,0.0455,0.0482,0.0493,0.0498,0.0523,0.0529,0.0545,0.0558,0.0567,0.0543,0.056,0.0545,0.0523,0.0523,0.0519,0.0517,0.0509,0.0505,0.0544,0.0543,0.0543,0,0.0361,0.0372,0.0398,0.0403,0.0412,0.0442,0.0442,0.0454,0.0477,0.0483,0.0493,0.0515,0.053,0.0534,0.0528,0.0534,0.0535,0.0542,0.0518,0.0515,0.0513,0.0506,0.0502,0.0542,0.0542,0.0542,0.0542,0,0.0338,0.0346,0.0342,0.0365,0.0374,0.0375,0.0402,0.0408,0.0425,0.0442,0.0448,0.0468,0.0483,0.0485,0.0501,0.0492,0.0497,0.0513,0.0531,0.0506,0.05,0.0497,0.0539,0.0539,0.054,0.054,0,0,0.0281,0.032,0.0319,0.033,0.0357,0.0363,0.0366,0.0382,0.0387,0.0402,0.0406,0.042,0.0435,0.0445,0.0463,0.0462,0.0443,0.0478,0.0479,0.0471,0.0435,0.0423,0.0419,0.0455,0.0455,0.0455,0.0433,0,0.0254,0.0263,0.0288,0.0288,0.0296,0.0326,0.0329,0.0346,0.0363,0.0372,0.039,0.04,0.0418,0.0425,0.0426,0.0445,0.0436,0.0447,0.0459,0.0459,0.0453,0.0416,0.0403,0.0382,0.0431,0.043,0.043,0,0.0224,0.0239,0.024,0.0269,0.0273,0.0275,0.0292,0.03,0.0321,0.0333,0.0345,0.0366,0.0372,0.039,0.0398,0.0405,0.0412,0.0422,0.0422,0.0424,0.0443,0.0417,0.0375,0.0372,0.0426,0.0427,0.0427,0,0.0183,0.0203,0.0207,0.0216,0.0249,0.025,0.0263,0.0285,0.0293,0.0308,0.0314,0.033,0.0338,0.035,0.0374,0.0385,0.038,0.04,0.0391,0.039,0.0388,0.0388,0.0347,0.0392,0.0393,0.0393,0.0393,0,0.015,0.015,0.0189,0.0191,0.0193,0.0222,0.0222,0.0239,0.0258,0.0264,0.0291,0.0296,0.0329,0.0338,0.0357,0.0362,0.0365,0.0376,0.0381,0.0373,0.0372,0.0378,0.038,0.0392,0.0392,0.0392,0.0392,0,0.0104,0.013,0.0136,0.0167,0.0175,0.0175,0.0202,0.0205,0.0225,0.0232,0.0236,0.0266,0.0278,0.0304,0.0323,0.0337,0.0337,0.0346,0.033,0.0333,0.0323,0.0324,0.0285,0.0281,0.0328,0.0328,0.0327,0,0.0081,0.0082,0.0114,0.012,0.0133,0.0143,0.0153,0.0182,0.019,0.0215,0.0216,0.0231,0.0244,0.0262,0.0286,0.0301,0.0311,0.0296,0.0313,0.0306,0.0311,0.0311,0.0311,0.0292,0.0291,0.0291,0.0291,0,0.0039,0.0052,0.0064,0.0082,0.0092,0.0107,0.0124,0.0128,0.0161,0.0169,0.0183,0.0193,0.0214,0.0228,0.0248,0.0262,0.0282,0.0285,0.0284,0.0276,0.0267,0.0272,0.032,0.0286,0.0286,0.0287,0.0287,0.0287,0.0004,0.0006,0.003,0.0043,0.0059,0.0074,0.0079,0.01,0.0112,0.0131,0.0148,0.016,0.0182,0.021,0.0223,0.0234,0.0243,0.0241,0.0241,0.024,0.0237,0.0266,0.0237,0.0237,0.0237,0.0238,0.0238,0,-0.0037,-0.002,-0.0008,0.0015,0.0025,0.0045,0.0064,0.0072,0.0082,0.0101,0.0115,0.0131,0.0146,0.0171,0.0188,0.0191,0.0201,0.0195,0.0195,0.0198,0.0227,0.0227,0.0187,0.0187,0.0187,0.0187,0.0187,0.0187,-0.0057,-0.0051,-0.0035,-0.002,-0.0003,0.0009,0.0019,0.0033,0.0049,0.0066,0.0079,0.0095,0.0117,0.0136,0.0151,0.0158,0.0163,0.0154,0.0164,0.0191,0.0195,0.02,0.02,0.0155,0.0155,0.0134,0.0134,0.0133]}]]